This is the latest recevied weather packets stored in our database for station/object KE6LRO. If no packets are shown the sender has not sent any weather packets the latest 10 day(s).
| Time | Temp. | Humidity | Pressure | Rain* | Wind** | Luminosity | Snow |
|---|---|---|---|---|---|---|---|
| 1777933681 | 20° C | 35% | 1014.2 hPa | 0 mm | - | 336 W/m² | - |
| 1777933378 | 20° C | 35% | 1014.2 hPa | 0 mm | - | 387 W/m² | - |
| 1777933076 | 20° C | 35% | 1014.3 hPa | 0 mm | - | 351 W/m² | - |
| 1777932773 | 19.44° C | 35% | 1014.2 hPa | 0 mm | - | 311 W/m² | - |
| 1777932469 | 20° C | 35% | 1014.3 hPa | 0 mm | - | 439 W/m² | - |
| 1777932166 | 20° C | 34% | 1014.2 hPa | 0 mm | - | 468 W/m² | - |
| 1777931864 | 20° C | 35% | 1014.2 hPa | 0 mm | - | 519 W/m² | - |
| 1777931560 | 20° C | 36% | 1014.2 hPa | 0 mm | - | 550 W/m² | - |
| 1777931256 | 20° C | 36% | 1014.4 hPa | 0 mm | - | 464 W/m² | - |
| 1777930953 | 21.11° C | 34% | 1014.2 hPa | 0 mm | - | 555 W/m² | - |
| 1777930649 | 20.56° C | 34% | 1014.5 hPa | 0 mm | - | 578 W/m² | - |
| 1777930346 | 20° C | 36% | 1014.6 hPa | 0 mm | - | 584 W/m² | - |
| 1777930043 | 20° C | 35% | 1014.6 hPa | 0 mm | - | 522 W/m² | - |
| 1777929740 | 20° C | 35% | 1014.6 hPa | 0 mm | - | 486 W/m² | - |
| 1777929437 | 20.56° C | 33% | 1014.6 hPa | 0 mm | - | 545 W/m² | - |
| 1777929133 | 20.56° C | 35% | 1014.5 hPa | 0 mm | - | 626 W/m² | - |
| 1777928831 | 20° C | 34% | 1014.6 hPa | 0 mm | - | 552 W/m² | - |
| 1777928527 | 20° C | 34% | 1014.7 hPa | 0 mm | - | 540 W/m² | - |
| 1777928225 | 20° C | 35% | 1014.6 hPa | 0 mm | - | 655 W/m² | - |
| 1777927921 | 20° C | 35% | 1014.9 hPa | 0 mm | - | 661 W/m² | - |
| 1777927620 | 19.44° C | 36% | 1014.7 hPa | 0 mm | - | 609 W/m² | - |
| 1777927319 | 20° C | 34% | 1014.8 hPa | 0 mm | - | 666 W/m² | - |
| 1777927017 | 20° C | 34% | 1014.8 hPa | 0 mm | - | 666 W/m² | - |
| 1777926715 | 20° C | 34% | 1014.7 hPa | 0 mm | - | 701 W/m² | - |
| 1777926414 | 20° C | 35% | 1014.9 hPa | 0 mm | - | 687 W/m² | - |
* Rain latest hour (hover to see other rain measurements)
** Current wind speed in m/s (hover to see current wind gust speed)